Regional Weather Roundup
Issued by NWS

Home | Current Version | Previous Version | Text Only | Print | Product List | Glossary Off
Versions: 1 2 3 4 5 6 7 8 9 10 11 12 13 14 15 16 17 18 19 20 21 22 23 24 25 26 27 28 29 30 31 32 33 34 35 36 37 38 39 40 41 42 43 44 45 46 47 48 49 50

000
ASUS43 KFSD 032202
RWRSD

WEATHER ROUNDUP FOR SOUTH DAKOTA
NATIONAL WEATHER SERVICE SIOUX FALLS SD
500 PM CDT SUN MAY 03 2015

NOTE: "FAIR" INDICATES FEW OR NO CLOUDS BELOW 12,000 FEET WITH NO
SIGNIFICANT WEATHER AND/OR OBSTRUCTIONS TO VISIBILITY.


SDZ001>005-009-010-012>017-032300-
NORTHWEST AND NORTH CENTRAL SOUTH DAKOTA

CITY           SKY/WX    TMP DP  RH WIND       PRES   REMARKS
BUFFALO          N/A     60  36  40 VRB3      29.97F
FAITH            N/A     66  32  28 N14       30.01S
MOBRIDGE       PTSUNNY   66  24  20 N16       29.97S
$$

SDZ012>016-024>037-041>051-057-063-072>074-032300-
SOUTHWEST AND SOUTH CENTRAL SOUTH DAKOTA

CITY           SKY/WX    TMP DP  RH WIND       PRES   REMARKS
RAPID CTY ARPT MOSUNNY   68  37  32 NE16      30.00S
PIERRE         SUNNY     73  33  23 N18G26    29.94R
CUSTER         MOSUNNY   60  36  40 E17G24    30.04S
ELLSWORTH AFB  MOSUNNY   67  37  33 NE14      29.99F
PHILIP         SUNNY     74  35  24 N16G23    29.96S
PINE RIDGE     SUNNY     70  38  31 NE17G24   29.96F
WINNER         FAIR      74  35  24 NE25G36   29.92S
$$

SDZ004>011-016>023-039-040-032300-
NORTHEAST SOUTH DAKOTA

CITY           SKY/WX    TMP DP  RH WIND       PRES   REMARKS
ABERDEEN       MOSUNNY   68  25  19 N20       29.96S
WATERTOWN      PTSUNNY   69  36  29 N16       29.92F
BROOKINGS      CLOUDY    66  37  34 NE20G26   29.90R
SISSETON         N/A     68  27  21 N16       29.93R
$$

SDZ017-020-022-023-036>040-048>070-032300-
SOUTHEAST SOUTH DAKOTA

CITY           SKY/WX    TMP DP  RH WIND       PRES   REMARKS
SIOUX FALLS    PTSUNNY   72  40  31 NE33G43   29.82F
HURON          PTSUNNY   74  36  25 NE20G28   29.89R
MITCHELL       PTSUNNY   72  40  31 NE20G26   29.87R
YANKTON        MOSUNNY   79  48  34 N26G40    29.77R
$$

ABBREVIATIONS USED IN REMARKS
   TC - TEMPERATURE IN CELSIUS
  WCI - WIND CHILL INDEX
   HX - HEAT INDEX
  VSB - VISIBILITY




USA.gov is the U.S. government's official web portal to all federal, state and local government web resources and services.